Location: 10033 Water Well
(34.0865°N, 106.8959°W)
Time: 17:02:39
(UTC+00:00)

USA 32 - Pass Details

Date: 13 January 2026
Orbit: 774 x 780 km, 85.0° (Epoch: 10 February)

Event Time Altitude Azimuth Distance (km) Brightness Sun altitude
Rises 01:00:39 0° 353° (N) 3,265 7.1 -8.8°
Reaches altitude 10° 01:03:01 10° 351° (N) 2,332 6.4 -9.3°
Maximum altitude 01:08:13 69° 269° (W) 829 4.4 -10.3°
Drops below altitude 10° 01:13:22 10° 187° (S) 2,314 6.8 -11.3°
Sets 01:15:42 0° 184° (S) 3,236 7.6 -11.8°
